Regional Weather Roundup
Issued by NWS

Home | Current Version | Previous Version | Text Only | Print | Product List | Glossary Off
Versions: 1 2 3 4 5 6 7 8 9 10 11 12 13 14 15 16 17 18 19 20 21 22 23 24 25 26 27 28 29 30 31 32 33 34 35 36 37 38 39 40 41 42 43 44 45 46 47 48 49 50

000
ASUS43 KDTX 071101
RWRMI
MICHIGAN HOURLY REGIONAL WEATHER ROUNDUP
NATIONAL WEATHER SERVICE DETROIT/PONTIAC MI
600 AM EST SUN FEB 07 2016

NOTE: "FAIR" INDICATES FEW OR NO CLOUDS BELOW 12,000 FEET WITH NO
SIGNIFICANT WEATHER AND/OR OBSTRUCTION TO VISIBILITY.

MIZ047>049-052>055-059>063-066>070-074>076-081>083-071200-
SOUTHEAST LOWER MICHIGAN

CITY           SKY/WX    TMP DP  RH WIND       PRES   REMARKS
ADRIAN         CLEAR     28  24  85 SW3       30.02F
ALMA           CLOUDY    34  31  90 S7        29.93F WCI  27
ANN ARBOR      CLEAR     27  24  89 S3        30.01F
BAD AXE        CLOUDY    33  28  83 S10       29.96F WCI  25
CARO           CLOUDY    32  27  83 S5        29.96F WCI  27
DETROIT CITY   PTCLDY    30  25  81 S6        30.03F WCI  24
DETROIT        PTCLDY    29  24  82 S6        30.04F WCI  23
FLINT          PTCLDY    35  26  69 S8        29.98F WCI  29
GROSSE ILE     CLEAR     32  28  86 S5        30.02F WCI  27
HILLSDALE      PTCLDY    30  25  83 S6        29.98F WCI  24
HOWELL         PTCLDY    32  28  83 S7        29.98F WCI  26

CITY           SKY/WX    TMP DP  RH WIND       PRES   REMARKS
JACKSON        MOCLDY    33  26  75 S6        29.98F WCI  28
LAMBERTVILLE   CLOUDY    32  25  77 SW5       30.03F WCI  27
LANSING        MOCLDY    34  27  75 S9        29.96F WCI  27
LAPEER         FAIR      31  27  86 S6        29.99F WCI  25
MASON          MOCLDY    32  28  86 S7        29.97F WCI  26
MONROE         CLEAR     30  24  79 S3        30.03F
MT. CLEMENS    CLEAR     28  26  93 S7        30.01F WCI  20
PONTIAC        CLEAR     29  24  82 S6        29.99F WCI  23
PORT HOPE        N/A     33  26  75 VRB6      29.94F WCI  28
PORT HURON     CLEAR     30  27  86 S7        30.03F WCI  23
TRI CITIES     CLOUDY    34  28  79 MISG      29.94F
MIDLAND        CLOUDY    33  28  80 S5        29.93F WCI  28
TROY           CLEAR     32  26  78 S3        30.03F
SAGINAW HB     CLOUDY    32  30  93 S8        29.95F WCI  25
$$
MIZ043>046-050>051-056>058-064>065-071>073-077>080-071200-
SOUTHWEST LOWER MICHIGAN

CITY           SKY/WX    TMP DP  RH WIND       PRES   REMARKS
BATTLE CREEK   CLOUDY    34  27  75 S10       29.96F WCI  26
BENTON HARBOR  CLOUDY    37  29  72 S8        29.93F WCI  31
BIG RAPIDS     CLOUDY    33  32  94 S5        29.87F WCI  29
COLDWATER      PTCLDY    34  28  76 SW6       29.99S WCI  29
FREMONT        FAIR      34  33  96 S5        29.87F WCI  30
HOLLAND        CLOUDY    34  29  82 S8        29.91F WCI  27
GRAND RAPIDS   CLOUDY    34  28  79 S9        29.92F WCI  27
IONIA          FAIR      33  28  83 S9        29.92F WCI  25
KALAMAZOO      MOCLDY    33  27  78 S9        29.96F WCI  25
LUDINGTON      MOCLDY    36  32  84 S10       29.82F WCI  29
MARSHALL       CLOUDY    33  27  79 S5        29.97F WCI  29
MOUNT PLEASANT CLOUDY    33  28  81 S5        29.90F WCI  29
MUSKEGON       CLOUDY    37  31  78 S12       29.88F WCI  29
SOUTH HAVEN    MOCLDY    37  30  75 S6        29.92F WCI  32
$$
MIZ016>042-071200-
NORTHERN LOWER MICHIGAN

CITY           SKY/WX    TMP DP  RH WIND       PRES   REMARKS
ALPENA         CLOUDY    29  25  85 SE7       29.90F WCI  22
BEAVER ISLAND  CLOUDY    34  31  88 S7        29.78F WCI  28
BELLAIRE       CLOUDY    34  29  83 S7        29.82F WCI  28
CADILLAC       CLOUDY    33  31  94 S7        29.82F WCI  26
CHARLEVOIX     CLOUDY    33  29  86 S6        29.83F WCI  27
FRANKFORT      CLOUDY    35  31  85 S10       29.80F WCI  27
GAYLORD        MOCLDY    29  26  89 S9        29.81F FOG     WCI  20
GRAYLING       CLOUDY    31  29  92 S6        29.85F FOG     WCI  25
HARBOR SPRINGS CLOUDY    33  28  81 S6        29.81F WCI  27
HOUGHTON LAKE  CLOUDY    32  28  85 S8        29.87F WCI  25
MANISTEE       CLOUDY    34  28  80 SE7       29.82F WCI  28
OSCODA         CLOUDY    31  27  84 S8        29.92F WCI  24
PELLSTON       CLOUDY    30  26  85 SE6       29.82F WCI  24
ROGERS CITY    CLOUDY    30  26  84 S8        29.88F WCI  22
TRAVERSE CITY  CLOUDY    37  29  72 S8        29.80F WCI  31
$$
MIZ007>008-015-071200-
EASTERN UPPER MICHIGAN

CITY           SKY/WX    TMP DP  RH WIND       PRES   REMARKS
KINROSS        CLOUDY    30  28  93 SE14      29.81F WCI  20
MACKINAC ISLAN CLOUDY    29  26  86 SE10      29.81F WCI  20
NEWBERRY       CLOUDY    32  32  99 S17       29.74F FOG     WCI  21
S. S. MARIE    CLOUDY    30  26  85 SE9       29.82F WCI  22
$$
MIZ004>006-011>014-085-071200-
CENTRAL UPPER MICHIGAN

CITY           SKY/WX    TMP DP  RH WIND       PRES   REMARKS
MANISTIQUE     LGT SNOW  33  31  94 S12       29.73F WCI  24
ESCANABA       CLOUDY    30  28  93 SW12G21   29.71F WCI  21
MENOMINEE      CLOUDY    32  27  80 S10       29.70F WCI  24
SAWYER-GWINN   LGT SNOW  27  26  96 SW15G23   29.63F WCI  15
$$
MIZ001>003-009>011-084-071200-
WESTERN UPPER MICHIGAN

CITY           SKY/WX    TMP DP  RH WIND       PRES   REMARKS
IRON MOUNTAIN  CLOUDY    29  25  85 S6        29.65F FOG     WCI  23
HOUGHTON       LGT SNOW  30  28  92 S7        29.58S FOG     WCI  23
COPPER HARBOR    N/A     32  30  92 SW9       29.60F WCI  24
IRONWOOD       CLOUDY    30  27  86 S12G21    29.52F WCI  21
$$

ABBREVIATIONS USED IN REMARKS
   TC - TEMPERATURE IN CELSIUS
  WCI - WIND CHILL INDEX
   HX - HEAT INDEX
  VSB - VISIBILITY




USA.gov is the U.S. government's official web portal to all federal, state and local government web resources and services.